{"data":{"norad_id":68243,"epoch":"2026-09-20T00:59:44.031840Z","epoch_age_seconds":91423,"freshness":"FRESH","line1":"1 68243U 26054M   26263.04148185  .00016462  00000+0  49723-3 0  9996","line2":"2 68243  53.1570 103.7154 0000904 107.3963 252.7138 15.34403729 28892","mean_motion":15.34403729,"eccentricity":9.04e-5,"inclination_deg":53.157,"raan_deg":103.7154,"arg_perigee_deg":107.3963,"mean_anomaly_deg":252.7138,"bstar":0.00049723,"rev_number":2889,"period_min":93.847530006883,"perigee_km":462.07374589992,"apogee_km":463.31056781148,"semimajor_km":6840.8291568557,"source":"CELESTRAK","updated_at":"2026-09-20T09:00:43.841424Z"}}